Location: *
(37.9500°N, 27.3666°E)
Time: 14:08:29
(UTC+00:00)

Lacrosse 4 Rocket - Pass Details

Date: 24 October 2021
Orbit: 537 x 619 km, 68.0° (Epoch: 02 December)

Event Time Altitude Azimuth Distance (km) Brightness Sun altitude
Rises 17:30:55 0° 325° (NW) 2,828 5.5 -26.3°
Reaches altitude 10° 17:33:15 10° 317° (NW) 1,936 4.7 -26.7°
Maximum altitude 17:37:17 38° 250° (WSW) 931 2.8 -27.5°
Enters shadow 17:38:25 32° 215° (SW) 1,049 2.9 -27.7°
